Year,Month,Day,Hour,Minute,Value (Times are PST for temperature in C)
2007,07,13,00,00,17.60
2007,07,13,00,01,17.60
2007,07,13,00,02,17.60
2007,07,13,00,03,17.60
2007,07,13,00,04,17.60
2007,07,13,00,05,17.60
2007,07,13,00,06,17.60
2007,07,13,00,07,17.50
2007,07,13,00,08,17.50
2007,07,13,00,09,17.50
2007,07,13,00,10,17.50
2007,07,13,00,11,17.50
2007,07,13,00,12,17.50
2007,07,13,00,13,17.50
2007,07,13,00,14,17.50
2007,07,13,00,15,17.40
2007,07,13,00,16,17.50
2007,07,13,00,17,17.50
2007,07,13,00,18,17.50
2007,07,13,00,19,17.50
2007,07,13,00,20,17.60
2007,07,13,00,21,17.60
2007,07,13,00,22,17.70
2007,07,13,00,23,17.80
2007,07,13,00,24,17.80
2007,07,13,00,25,17.80
2007,07,13,00,26,17.80
2007,07,13,00,27,17.90
2007,07,13,00,28,17.90
2007,07,13,00,29,17.90
2007,07,13,00,30,17.90
2007,07,13,00,31,17.90
2007,07,13,00,32,18.00
2007,07,13,00,33,18.00
2007,07,13,00,34,18.00
2007,07,13,00,35,18.10
2007,07,13,00,36,18.10
2007,07,13,00,37,18.10
2007,07,13,00,38,18.00
2007,07,13,00,39,18.00
2007,07,13,00,40,17.90
2007,07,13,00,41,17.80
2007,07,13,00,42,17.80
2007,07,13,00,43,17.70
2007,07,13,00,44,17.70
2007,07,13,00,45,17.60
2007,07,13,00,46,17.60
2007,07,13,00,47,17.60
2007,07,13,00,48,17.50
2007,07,13,00,49,17.40
2007,07,13,00,50,17.40
2007,07,13,00,51,17.40
2007,07,13,00,52,17.30
2007,07,13,00,53,17.30
2007,07,13,00,54,17.30
2007,07,13,00,55,17.20
2007,07,13,00,56,17.20
2007,07,13,00,57,17.20
2007,07,13,00,58,17.20
2007,07,13,00,59,17.20
2007,07,13,01,00,17.20
2007,07,13,01,01,17.20
2007,07,13,01,02,17.20
2007,07,13,01,03,17.20
2007,07,13,01,04,17.20
2007,07,13,01,05,17.20
2007,07,13,01,06,17.20
2007,07,13,01,07,17.20
2007,07,13,01,08,17.20
2007,07,13,01,09,17.20
2007,07,13,01,10,17.20
2007,07,13,01,11,17.20
2007,07,13,01,12,17.20
2007,07,13,01,13,17.20
2007,07,13,01,14,17.20
2007,07,13,01,15,17.30
2007,07,13,01,16,17.30
2007,07,13,01,17,17.30
2007,07,13,01,18,17.30
2007,07,13,01,19,17.30
2007,07,13,01,20,17.30
2007,07,13,01,21,17.30
2007,07,13,01,22,17.30
2007,07,13,01,23,17.30
2007,07,13,01,24,17.30
2007,07,13,01,25,17.30
2007,07,13,01,26,17.30
2007,07,13,01,27,17.20
2007,07,13,01,28,17.20
2007,07,13,01,29,17.20
2007,07,13,01,30,17.20
2007,07,13,01,31,17.20
2007,07,13,01,32,17.20
2007,07,13,01,33,17.20
2007,07,13,01,34,17.20
2007,07,13,01,35,17.10
2007,07,13,01,36,17.10
2007,07,13,01,37,17.10
2007,07,13,01,38,17.10
2007,07,13,01,39,17.10
2007,07,13,01,40,17.10
2007,07,13,01,41,17.00
2007,07,13,01,42,17.00
2007,07,13,01,43,17.00
2007,07,13,01,44,17.00
2007,07,13,01,45,16.90
2007,07,13,01,46,16.90
2007,07,13,01,47,16.90
2007,07,13,01,48,16.90
2007,07,13,01,49,16.90
2007,07,13,01,50,16.90
2007,07,13,01,51,16.90
2007,07,13,01,52,16.90
2007,07,13,01,53,16.90
2007,07,13,01,54,17.00
2007,07,13,01,55,17.00
2007,07,13,01,56,17.00
2007,07,13,01,57,17.10
2007,07,13,01,58,17.10
2007,07,13,01,59,17.20
2007,07,13,02,00,17.30
2007,07,13,02,01,17.30
2007,07,13,02,02,17.30
2007,07,13,02,03,17.40
2007,07,13,02,04,17.40
2007,07,13,02,05,17.40
2007,07,13,02,06,17.40
2007,07,13,02,07,17.40
2007,07,13,02,08,17.40
2007,07,13,02,09,17.50
2007,07,13,02,10,17.50
2007,07,13,02,11,17.50
2007,07,13,02,12,17.50
2007,07,13,02,13,17.50
2007,07,13,02,14,17.50
2007,07,13,02,15,17.60
2007,07,13,02,16,17.60
2007,07,13,02,17,17.50
2007,07,13,02,18,17.50
2007,07,13,02,19,17.50
2007,07,13,02,20,17.50
2007,07,13,02,21,17.50
2007,07,13,02,22,17.40
2007,07,13,02,23,17.40
2007,07,13,02,24,17.40
2007,07,13,02,25,17.40
2007,07,13,02,26,17.40
2007,07,13,02,27,17.30
2007,07,13,02,28,17.30
2007,07,13,02,29,17.30
2007,07,13,02,30,17.20
2007,07,13,02,31,17.20
2007,07,13,02,32,17.20
2007,07,13,02,33,17.20
2007,07,13,02,34,17.20
2007,07,13,02,35,17.20
2007,07,13,02,36,17.20
2007,07,13,02,37,17.20
2007,07,13,02,38,17.20
2007,07,13,02,39,17.20
2007,07,13,02,40,17.20
2007,07,13,02,41,17.20
2007,07,13,02,42,17.20
2007,07,13,02,43,17.20
2007,07,13,02,44,17.20
2007,07,13,02,45,17.20
2007,07,13,02,46,17.20
2007,07,13,02,47,17.20
2007,07,13,02,48,17.30
2007,07,13,02,49,17.30
2007,07,13,02,50,17.30
2007,07,13,02,51,17.30
2007,07,13,02,52,17.30
2007,07,13,02,53,17.30
2007,07,13,02,54,17.30
2007,07,13,02,55,17.30
2007,07,13,02,56,17.30
2007,07,13,02,57,17.30
2007,07,13,02,58,17.30
2007,07,13,02,59,17.20
2007,07,13,03,00,17.20
2007,07,13,03,01,17.20
2007,07,13,03,02,17.10
2007,07,13,03,03,17.10
2007,07,13,03,04,17.00
2007,07,13,03,05,17.00
2007,07,13,03,06,16.90
2007,07,13,03,07,16.80
2007,07,13,03,08,16.80
2007,07,13,03,09,16.70
2007,07,13,03,10,16.70
2007,07,13,03,11,16.60
2007,07,13,03,12,16.60
2007,07,13,03,13,16.60
2007,07,13,03,14,16.50
2007,07,13,03,15,16.40
2007,07,13,03,16,16.40
2007,07,13,03,17,16.40
2007,07,13,03,18,16.30
2007,07,13,03,19,16.30
2007,07,13,03,20,16.30
2007,07,13,03,21,16.20
2007,07,13,03,22,16.20
2007,07,13,03,23,16.20
2007,07,13,03,24,16.10
2007,07,13,03,25,16.10
2007,07,13,03,26,16.10
2007,07,13,03,27,16.10
2007,07,13,03,28,16.10
2007,07,13,03,29,16.00
2007,07,13,03,30,16.00
2007,07,13,03,31,15.90
2007,07,13,03,32,15.90
2007,07,13,03,33,15.90
2007,07,13,03,34,15.90
2007,07,13,03,35,15.90
2007,07,13,03,36,15.90
2007,07,13,03,37,15.90
2007,07,13,03,38,15.90
2007,07,13,03,39,15.90
2007,07,13,03,40,15.90
2007,07,13,03,41,15.80
2007,07,13,03,42,15.80
2007,07,13,03,43,15.80
2007,07,13,03,44,15.80
2007,07,13,03,45,15.80
2007,07,13,03,46,15.70
2007,07,13,03,47,15.70
2007,07,13,03,48,15.70
2007,07,13,03,49,15.70
2007,07,13,03,50,15.70
2007,07,13,03,51,15.70
2007,07,13,03,52,15.70
2007,07,13,03,53,15.70
2007,07,13,03,54,15.70
2007,07,13,03,55,15.70
2007,07,13,03,56,15.70
2007,07,13,03,57,15.70
2007,07,13,03,58,15.70
2007,07,13,03,59,15.70
2007,07,13,04,00,15.70
2007,07,13,04,01,15.70
2007,07,13,04,02,15.70
2007,07,13,04,03,15.70
2007,07,13,04,04,15.80
2007,07,13,04,05,15.80
2007,07,13,04,06,15.80
2007,07,13,04,07,15.80
2007,07,13,04,08,15.80
2007,07,13,04,09,15.90
2007,07,13,04,10,15.90
2007,07,13,04,11,16.00
2007,07,13,04,12,16.00
2007,07,13,04,13,16.10
2007,07,13,04,14,16.10
2007,07,13,04,15,16.10
2007,07,13,04,16,16.10
2007,07,13,04,17,16.10
2007,07,13,04,18,16.10
2007,07,13,04,19,16.20
2007,07,13,04,20,16.20
2007,07,13,04,21,16.20
2007,07,13,04,22,16.20
2007,07,13,04,23,16.20
2007,07,13,04,24,16.20
2007,07,13,04,25,16.20
2007,07,13,04,26,16.20
2007,07,13,04,27,16.20
2007,07,13,04,28,16.20
2007,07,13,04,29,16.20
2007,07,13,04,30,16.20
2007,07,13,04,31,16.20
2007,07,13,04,32,16.20
2007,07,13,04,33,16.20
2007,07,13,04,34,16.20
2007,07,13,04,35,16.20
2007,07,13,04,36,16.20
2007,07,13,04,37,16.20
2007,07,13,04,38,16.20
2007,07,13,04,39,16.20
2007,07,13,04,40,16.20
2007,07,13,04,41,16.20
2007,07,13,04,42,16.10
2007,07,13,04,43,16.10
2007,07,13,04,44,16.10
2007,07,13,04,45,16.10
2007,07,13,04,46,16.10
2007,07,13,04,47,16.00
2007,07,13,04,48,16.00
2007,07,13,04,49,15.90
2007,07,13,04,50,15.90
2007,07,13,04,51,15.80
2007,07,13,04,52,15.80
2007,07,13,04,53,15.80
2007,07,13,04,54,15.80
2007,07,13,04,55,15.70
2007,07,13,04,56,15.70
2007,07,13,04,57,15.60
2007,07,13,04,58,15.60
2007,07,13,04,59,15.60
2007,07,13,05,00,15.50
2007,07,13,05,01,15.50
2007,07,13,05,02,15.50
2007,07,13,05,03,15.40
2007,07,13,05,04,15.40
2007,07,13,05,05,15.40
2007,07,13,05,06,15.40
2007,07,13,05,07,15.40
2007,07,13,05,08,15.40
2007,07,13,05,09,15.40
2007,07,13,05,10,15.40
2007,07,13,05,11,15.30
2007,07,13,05,12,15.30
2007,07,13,05,13,15.30
2007,07,13,05,14,15.30
2007,07,13,05,15,15.30
2007,07,13,05,16,15.30
2007,07,13,05,17,15.20
2007,07,13,05,18,15.20
2007,07,13,05,19,15.20
2007,07,13,05,20,15.20
2007,07,13,05,21,15.20
2007,07,13,05,22,15.20
2007,07,13,05,23,15.20
2007,07,13,05,24,15.20
2007,07,13,05,25,15.20
2007,07,13,05,26,15.20
2007,07,13,05,27,15.20
2007,07,13,05,28,15.20
2007,07,13,05,29,15.20
2007,07,13,05,30,15.20
2007,07,13,05,31,15.20
2007,07,13,05,32,15.10
2007,07,13,05,33,15.10
2007,07,13,05,34,15.10
2007,07,13,05,35,15.10
2007,07,13,05,36,15.10
2007,07,13,05,37,15.00
2007,07,13,05,38,15.00
2007,07,13,05,39,15.00
2007,07,13,05,40,15.00
2007,07,13,05,41,15.00
2007,07,13,05,42,15.00
2007,07,13,05,43,15.00
2007,07,13,05,44,15.00
2007,07,13,05,45,15.00
2007,07,13,05,46,15.00
2007,07,13,05,47,15.00
2007,07,13,05,48,15.00
2007,07,13,05,49,15.00
2007,07,13,05,50,15.00
2007,07,13,05,51,15.00
2007,07,13,05,52,15.00
2007,07,13,05,53,15.00
2007,07,13,05,54,15.00
2007,07,13,05,55,15.00
2007,07,13,05,56,15.00
2007,07,13,05,57,15.00
2007,07,13,05,58,15.00
2007,07,13,05,59,15.00
2007,07,13,06,00,15.00
2007,07,13,06,01,15.00
2007,07,13,06,02,15.00
2007,07,13,06,03,15.00
2007,07,13,06,04,15.00
2007,07,13,06,05,15.00
2007,07,13,06,06,15.00
2007,07,13,06,07,15.00
2007,07,13,06,08,15.00
2007,07,13,06,09,15.00
2007,07,13,06,10,15.00
2007,07,13,06,11,15.00
2007,07,13,06,12,15.00
2007,07,13,06,13,15.00
2007,07,13,06,14,15.00
2007,07,13,06,15,15.00
2007,07,13,06,16,15.00
2007,07,13,06,17,15.00
2007,07,13,06,18,15.00
2007,07,13,06,19,15.00
2007,07,13,06,20,15.00
2007,07,13,06,21,15.00
2007,07,13,06,22,15.00
2007,07,13,06,23,15.00
2007,07,13,06,24,15.00
2007,07,13,06,25,15.00
2007,07,13,06,26,15.00
2007,07,13,06,27,15.00
2007,07,13,06,28,15.00
2007,07,13,06,29,15.00
2007,07,13,06,30,15.00
2007,07,13,06,31,15.00
2007,07,13,06,32,15.00
2007,07,13,06,33,15.00
2007,07,13,06,34,15.00
2007,07,13,06,35,15.00
2007,07,13,06,36,15.00
2007,07,13,06,37,15.00
2007,07,13,06,38,15.00
2007,07,13,06,39,15.10
2007,07,13,06,40,15.10
2007,07,13,06,41,15.10
2007,07,13,06,42,15.20
2007,07,13,06,43,15.20
2007,07,13,06,44,15.20
2007,07,13,06,45,15.20
2007,07,13,06,46,15.30
2007,07,13,06,47,15.30
2007,07,13,06,48,15.30
2007,07,13,06,49,15.40
2007,07,13,06,50,15.40
2007,07,13,06,51,15.50
2007,07,13,06,52,15.50
2007,07,13,06,53,15.60
2007,07,13,06,54,15.60
2007,07,13,06,55,15.60
2007,07,13,06,56,15.70
2007,07,13,06,57,15.70
2007,07,13,06,58,15.70
2007,07,13,06,59,15.80
2007,07,13,07,00,15.80
2007,07,13,07,01,15.80
2007,07,13,07,02,15.90
2007,07,13,07,03,15.90
2007,07,13,07,04,15.90
2007,07,13,07,05,16.00
2007,07,13,07,06,16.00
2007,07,13,07,07,16.00
2007,07,13,07,08,16.10
2007,07,13,07,09,16.10
2007,07,13,07,10,16.10
2007,07,13,07,11,16.20
2007,07,13,07,12,16.20
2007,07,13,07,13,16.20
2007,07,13,07,14,16.20
2007,07,13,07,15,16.20
2007,07,13,07,16,16.20
2007,07,13,07,17,16.30
2007,07,13,07,18,16.30
2007,07,13,07,19,16.30
2007,07,13,07,20,16.40
2007,07,13,07,21,16.40
2007,07,13,07,22,16.40
2007,07,13,07,23,16.50
2007,07,13,07,24,16.50
2007,07,13,07,25,16.60
2007,07,13,07,26,16.60
2007,07,13,07,27,16.60
2007,07,13,07,28,16.70
2007,07,13,07,29,16.70
2007,07,13,07,30,16.70
2007,07,13,07,31,16.70
2007,07,13,07,32,16.80
2007,07,13,07,33,16.80
2007,07,13,07,34,16.90
2007,07,13,07,35,16.90
2007,07,13,07,36,16.90
2007,07,13,07,37,16.90
2007,07,13,07,38,17.00
2007,07,13,07,39,17.00
2007,07,13,07,40,17.00
2007,07,13,07,41,17.00
2007,07,13,07,42,17.00
2007,07,13,07,43,16.90
2007,07,13,07,44,16.90
2007,07,13,07,45,16.90
2007,07,13,07,46,16.80
2007,07,13,07,47,16.80
2007,07,13,07,48,16.80
2007,07,13,07,49,16.80
2007,07,13,07,50,16.80
2007,07,13,07,51,16.80
2007,07,13,07,52,16.80
2007,07,13,07,53,16.80
2007,07,13,07,54,16.80
2007,07,13,07,55,16.90
2007,07,13,07,56,16.90
2007,07,13,07,57,16.90
2007,07,13,07,58,16.90
2007,07,13,07,59,17.00
2007,07,13,08,00,17.00
2007,07,13,08,01,17.00
2007,07,13,08,02,17.00
2007,07,13,08,03,17.10
2007,07,13,08,04,17.10
2007,07,13,08,05,17.10
2007,07,13,08,06,17.20
2007,07,13,08,07,17.20
2007,07,13,08,08,17.30
2007,07,13,08,09,17.30
2007,07,13,08,10,17.40
2007,07,13,08,11,17.40
2007,07,13,08,12,17.40
2007,07,13,08,13,17.40
2007,07,13,08,14,17.40
2007,07,13,08,15,17.50
2007,07,13,08,16,17.60
2007,07,13,08,17,17.60
2007,07,13,08,18,17.70
2007,07,13,08,19,17.70
2007,07,13,08,20,17.80
2007,07,13,08,21,17.80
2007,07,13,08,22,17.90
2007,07,13,08,23,17.90
2007,07,13,08,24,17.90
2007,07,13,08,25,17.90
2007,07,13,08,26,18.00
2007,07,13,08,27,17.90
2007,07,13,08,28,18.00
2007,07,13,08,29,18.00
2007,07,13,08,30,18.10
2007,07,13,08,31,18.10
2007,07,13,08,32,18.20
2007,07,13,08,33,18.20
2007,07,13,08,34,18.30
2007,07,13,08,35,18.30
2007,07,13,08,36,18.40
2007,07,13,08,37,18.50
2007,07,13,08,38,18.60
2007,07,13,08,39,18.60
2007,07,13,08,40,18.70
2007,07,13,08,41,18.70
2007,07,13,08,42,18.70
2007,07,13,08,43,18.70
2007,07,13,08,44,18.70
2007,07,13,08,45,18.70
2007,07,13,08,46,18.80
2007,07,13,08,47,18.80
2007,07,13,08,48,18.80
2007,07,13,08,49,18.80
2007,07,13,08,50,18.90
2007,07,13,08,51,18.90
2007,07,13,08,52,18.90
2007,07,13,08,53,18.90
2007,07,13,08,54,18.90
2007,07,13,08,55,18.90
2007,07,13,08,56,18.90
2007,07,13,08,57,19.00
2007,07,13,08,58,19.00
2007,07,13,08,59,19.00
2007,07,13,09,00,19.10
2007,07,13,09,01,19.10
2007,07,13,09,02,19.10
2007,07,13,09,03,19.10
2007,07,13,09,04,19.20
2007,07,13,09,05,19.20
2007,07,13,09,06,19.20
2007,07,13,09,07,19.30
2007,07,13,09,08,19.30
2007,07,13,09,09,19.30
2007,07,13,09,10,19.40
2007,07,13,09,11,19.40
2007,07,13,09,12,19.40
2007,07,13,09,13,19.50
2007,07,13,09,14,19.60
2007,07,13,09,15,19.60
2007,07,13,09,16,19.70
2007,07,13,09,17,19.70
2007,07,13,09,18,19.70
2007,07,13,09,19,19.80
2007,07,13,09,20,19.80
2007,07,13,09,21,19.80
2007,07,13,09,22,19.90
2007,07,13,09,23,19.90
2007,07,13,09,24,20.00
2007,07,13,09,25,20.10
2007,07,13,09,26,20.20
2007,07,13,09,27,20.20
2007,07,13,09,28,20.20
2007,07,13,09,29,20.20
2007,07,13,09,30,20.20
2007,07,13,09,31,20.20
2007,07,13,09,32,20.20
2007,07,13,09,33,20.20
2007,07,13,09,34,20.20
2007,07,13,09,35,20.20
2007,07,13,09,36,20.20
2007,07,13,15,33,22.70
2007,07,13,15,34,22.80
2007,07,13,15,35,22.90
2007,07,13,15,36,22.90
2007,07,13,15,37,22.90
2007,07,13,15,38,22.90
2007,07,13,15,39,22.90
2007,07,13,15,40,22.90
2007,07,13,15,41,23.00
2007,07,13,15,42,23.00
2007,07,13,15,43,23.00
2007,07,13,15,44,22.90
2007,07,13,15,45,22.80
2007,07,13,15,46,22.80
2007,07,13,15,47,22.80
2007,07,13,15,48,22.70
2007,07,13,15,49,22.60
2007,07,13,15,50,22.60
2007,07,13,15,51,22.60
2007,07,13,15,52,22.60
2007,07,13,15,53,22.60
2007,07,13,15,54,22.60
2007,07,13,15,55,22.60
2007,07,13,15,56,22.60
2007,07,13,15,57,22.60
2007,07,13,15,58,22.70
2007,07,13,15,59,22.80
2007,07,13,16,00,22.80
2007,07,13,16,01,22.70
2007,07,13,16,02,22.70
2007,07,13,16,03,22.80
2007,07,13,16,04,22.90
2007,07,13,16,05,22.90
2007,07,13,16,06,22.90
2007,07,13,16,07,22.90
2007,07,13,16,08,22.90
2007,07,13,16,09,22.90
2007,07,13,16,10,22.90
2007,07,13,16,11,22.90
2007,07,13,16,12,22.90
2007,07,13,16,13,22.90
2007,07,13,16,14,22.90
2007,07,13,16,15,22.90
2007,07,13,16,16,22.90
2007,07,13,16,17,22.90
2007,07,13,16,18,22.90
2007,07,13,16,19,22.90
2007,07,13,16,20,22.90
2007,07,13,16,21,23.00
2007,07,13,16,22,23.10
2007,07,13,16,23,23.20
2007,07,13,16,24,23.20
2007,07,13,16,25,23.10
2007,07,13,16,26,23.10
2007,07,13,16,27,23.10
2007,07,13,16,28,23.10
2007,07,13,16,29,23.10
2007,07,13,16,30,23.20
2007,07,13,16,31,23.20
2007,07,13,16,32,23.30
2007,07,13,16,33,23.40
2007,07,13,16,34,23.40
2007,07,13,16,35,23.30
2007,07,13,16,36,23.30
2007,07,13,16,37,23.30
2007,07,13,16,38,23.20
2007,07,13,16,39,23.20
2007,07,13,16,40,23.20
2007,07,13,16,41,23.20
2007,07,13,16,42,23.20
2007,07,13,16,43,23.10
2007,07,13,16,44,23.10
2007,07,13,16,45,23.20
2007,07,13,16,46,23.20
2007,07,13,16,47,23.30
2007,07,13,16,48,23.30
2007,07,13,16,49,23.30
2007,07,13,16,50,23.30
2007,07,13,16,51,23.30
2007,07,13,16,52,23.30
2007,07,13,16,53,23.20
2007,07,13,16,54,23.10
2007,07,13,16,55,23.10
2007,07,13,16,56,23.10
2007,07,13,16,57,23.00
2007,07,13,16,58,23.00
2007,07,13,16,59,23.00
2007,07,13,17,00,22.90
2007,07,13,17,01,22.90
2007,07,13,17,02,22.80
2007,07,13,17,03,22.80
2007,07,13,17,04,22.70
2007,07,13,17,05,22.70
2007,07,13,17,06,22.70
2007,07,13,17,07,22.60
2007,07,13,17,08,22.70
2007,07,13,17,09,22.80
2007,07,13,17,10,22.80
2007,07,13,17,11,22.90
2007,07,13,17,12,23.00
2007,07,13,17,13,23.10
2007,07,13,17,14,23.20
2007,07,13,17,15,23.20
2007,07,13,17,16,23.20
2007,07,13,17,17,23.30
2007,07,13,17,18,23.30
2007,07,13,17,19,23.30
2007,07,13,17,20,23.30
2007,07,13,17,21,23.30
2007,07,13,17,22,23.30
2007,07,13,17,23,23.30
2007,07,13,17,24,23.40
2007,07,13,17,25,23.40
2007,07,13,17,26,23.40
2007,07,13,17,27,23.50
2007,07,13,17,28,23.50
2007,07,13,17,29,23.60
2007,07,13,17,30,23.50
2007,07,13,17,31,23.40
2007,07,13,17,32,23.40
2007,07,13,17,33,23.30
2007,07,13,17,34,23.30
2007,07,13,17,35,23.30
2007,07,13,17,36,23.30
2007,07,13,17,37,23.30
2007,07,13,17,38,23.40
2007,07,13,17,39,23.50
2007,07,13,17,40,23.60
2007,07,13,17,41,23.70
2007,07,13,17,42,23.80
2007,07,13,17,43,23.80
2007,07,13,17,44,23.80
2007,07,13,17,45,23.80
2007,07,13,17,46,23.70
2007,07,13,17,47,23.70
2007,07,13,17,48,23.60
2007,07,13,17,49,23.50
2007,07,13,17,50,23.50
2007,07,13,17,51,23.50
2007,07,13,17,52,23.50
2007,07,13,17,53,23.40
2007,07,13,17,54,23.40
2007,07,13,17,55,23.30
2007,07,13,17,56,23.30
2007,07,13,17,57,23.30
2007,07,13,17,58,23.20
2007,07,13,17,59,23.10
2007,07,13,18,00,23.00
2007,07,13,18,01,22.90
2007,07,13,18,02,22.90
2007,07,13,18,03,22.90
2007,07,13,18,04,22.80
2007,07,13,18,05,22.80
2007,07,13,18,06,22.80
2007,07,13,18,07,22.80
2007,07,13,18,08,22.80
2007,07,13,18,09,22.80
2007,07,13,18,10,22.80
2007,07,13,18,11,22.90
2007,07,13,18,12,22.90
2007,07,13,18,13,22.90
2007,07,13,18,14,22.90
2007,07,13,18,15,22.90
2007,07,13,18,16,22.90
2007,07,13,18,17,22.90
2007,07,13,18,18,22.90
2007,07,13,18,19,22.90
2007,07,13,18,20,22.90
2007,07,13,18,21,22.90
2007,07,13,18,22,22.90
2007,07,13,18,23,23.00
2007,07,13,18,24,23.00
2007,07,13,18,25,22.90
2007,07,13,18,26,22.90
2007,07,13,18,27,22.90
2007,07,13,18,28,22.80
2007,07,13,18,29,22.80
2007,07,13,18,30,22.80
2007,07,13,18,31,22.80
2007,07,13,18,32,22.80
2007,07,13,18,33,22.80
2007,07,13,18,34,22.80
2007,07,13,18,35,22.80
2007,07,13,18,36,22.80
2007,07,13,18,37,22.80
2007,07,13,18,38,22.80
2007,07,13,18,39,22.80
2007,07,13,18,40,22.80
2007,07,13,18,41,22.80
2007,07,13,18,42,22.80
2007,07,13,18,43,22.80
2007,07,13,18,44,22.80
2007,07,13,18,45,22.80
2007,07,13,18,46,22.80
2007,07,13,18,47,22.70
2007,07,13,18,48,22.60
2007,07,13,18,49,22.50
2007,07,13,18,50,22.50
2007,07,13,18,51,22.40
2007,07,13,18,52,22.40
2007,07,13,18,53,22.30
2007,07,13,18,54,22.30
2007,07,13,18,55,22.30
2007,07,13,18,56,22.20
2007,07,13,18,57,22.20
2007,07,13,18,58,22.20
2007,07,13,18,59,22.10
2007,07,13,19,00,22.00
2007,07,13,19,01,22.00
2007,07,13,19,02,21.90
2007,07,13,19,03,21.90
2007,07,13,19,04,21.80
2007,07,13,19,05,21.80
2007,07,13,19,06,21.70
2007,07,13,19,07,21.70
2007,07,13,19,08,21.70
2007,07,13,19,09,21.60
2007,07,13,19,10,21.60
2007,07,13,19,11,21.50
2007,07,13,19,12,21.40
2007,07,13,19,13,21.40
2007,07,13,19,14,21.30
2007,07,13,19,15,21.30
2007,07,13,19,16,21.20
2007,07,13,19,17,21.20
2007,07,13,19,18,21.10
2007,07,13,19,19,21.00
2007,07,13,19,20,20.90
2007,07,13,19,21,20.80
2007,07,13,19,22,20.80
2007,07,13,19,23,20.80
2007,07,13,19,24,20.70
2007,07,13,19,25,20.70
2007,07,13,19,26,20.70
2007,07,13,19,27,20.70
2007,07,13,19,28,20.70
2007,07,13,19,29,20.60
2007,07,13,19,30,20.70
2007,07,13,19,31,20.60
2007,07,13,19,32,20.60
2007,07,13,19,33,20.60
2007,07,13,19,34,20.60
2007,07,13,19,35,20.50
2007,07,13,19,36,20.50
2007,07,13,19,37,20.50
2007,07,13,19,38,20.50
2007,07,13,19,39,20.50
2007,07,13,19,40,20.50
2007,07,13,19,41,20.40
2007,07,13,19,42,20.40
2007,07,13,19,43,20.40
2007,07,13,19,44,20.50
2007,07,13,19,45,20.40
2007,07,13,19,46,20.40
2007,07,13,19,47,20.40
2007,07,13,19,48,20.40
2007,07,13,19,49,20.40
2007,07,13,19,50,20.40
2007,07,13,19,51,20.30
2007,07,13,19,52,20.30
2007,07,13,19,53,20.30
2007,07,13,19,54,20.30
2007,07,13,19,55,20.30
2007,07,13,19,56,20.30
2007,07,13,19,57,20.20
2007,07,13,19,58,20.20
2007,07,13,19,59,20.10
2007,07,13,20,00,20.10
2007,07,13,20,01,20.00
2007,07,13,20,02,20.00
2007,07,13,20,03,19.90
2007,07,13,20,04,19.90
2007,07,13,20,05,19.90
2007,07,13,20,06,19.80
2007,07,13,20,07,19.80
2007,07,13,20,08,19.80
2007,07,13,20,09,19.80
2007,07,13,20,10,19.80
2007,07,13,20,11,19.80
2007,07,13,20,12,19.80
2007,07,13,20,13,19.70
2007,07,13,20,14,19.70
2007,07,13,20,15,19.70
2007,07,13,20,16,19.70
2007,07,13,20,17,19.60
2007,07,13,20,18,19.60
2007,07,13,20,19,19.60
2007,07,13,20,20,19.50
2007,07,13,20,21,19.40
2007,07,13,20,22,19.40
2007,07,13,20,23,19.30
2007,07,13,20,24,19.30
2007,07,13,20,25,19.30
2007,07,13,20,26,19.30
2007,07,13,20,27,19.30
2007,07,13,20,28,19.30
2007,07,13,20,29,19.30
2007,07,13,20,30,19.30
2007,07,13,20,31,19.30
2007,07,13,20,32,19.30
2007,07,13,20,33,19.20
2007,07,13,20,34,19.20
2007,07,13,20,35,19.20
2007,07,13,20,36,19.20
2007,07,13,20,37,19.20
2007,07,13,20,38,19.20
2007,07,13,20,39,19.20
2007,07,13,20,40,19.20
2007,07,13,20,41,19.20
2007,07,13,20,42,19.20
2007,07,13,20,43,19.20
2007,07,13,20,44,19.20
2007,07,13,20,45,19.20
2007,07,13,20,46,19.20
2007,07,13,20,47,19.20
2007,07,13,20,48,19.20
2007,07,13,20,49,19.20
2007,07,13,20,50,19.10
2007,07,13,20,51,19.10
2007,07,13,20,52,19.10
2007,07,13,20,53,19.10
2007,07,13,20,54,19.00
2007,07,13,20,55,19.00
2007,07,13,20,56,18.90
2007,07,13,20,57,18.90
2007,07,13,20,58,18.90
2007,07,13,20,59,18.90
2007,07,13,21,00,18.80
2007,07,13,21,01,18.80
2007,07,13,21,02,18.80
2007,07,13,21,03,18.80
2007,07,13,21,04,18.70
2007,07,13,21,05,18.70
2007,07,13,21,06,18.70
2007,07,13,21,07,18.70
2007,07,13,21,08,18.60
2007,07,13,21,09,18.60
2007,07,13,21,10,18.60
2007,07,13,21,11,18.60
2007,07,13,21,12,18.50
2007,07,13,21,13,18.50
2007,07,13,21,14,18.50
2007,07,13,21,15,18.40
2007,07,13,21,16,18.40
2007,07,13,21,17,18.40
2007,07,13,21,18,18.40
2007,07,13,21,19,18.40
2007,07,13,21,20,18.30
2007,07,13,21,21,18.30
2007,07,13,21,22,18.30
2007,07,13,21,23,18.30
2007,07,13,21,24,18.30
2007,07,13,21,25,18.30
2007,07,13,21,26,18.30
2007,07,13,21,27,18.20
2007,07,13,21,28,18.20
2007,07,13,21,29,18.20
2007,07,13,21,30,18.20
2007,07,13,21,31,18.20
2007,07,13,21,32,18.10
2007,07,13,21,33,18.10
2007,07,13,21,34,18.10
2007,07,13,21,35,18.10
2007,07,13,21,36,18.10
2007,07,13,21,37,18.00
2007,07,13,21,38,18.00
2007,07,13,21,39,18.00
2007,07,13,21,40,17.90
2007,07,13,21,41,17.90
2007,07,13,21,42,17.90
2007,07,13,21,43,17.90
2007,07,13,21,44,17.90
2007,07,13,21,45,17.90
2007,07,13,21,46,17.90
2007,07,13,21,47,17.90
2007,07,13,21,48,17.80
2007,07,13,21,49,17.80
2007,07,13,21,50,17.80
2007,07,13,21,51,17.80
2007,07,13,21,52,17.80
2007,07,13,21,53,17.80
2007,07,13,21,54,17.80
2007,07,13,21,55,17.70
2007,07,13,21,56,17.70
2007,07,13,21,57,17.70
2007,07,13,21,58,17.70
2007,07,13,21,59,17.70
2007,07,13,22,00,17.70
2007,07,13,22,01,17.70
2007,07,13,22,02,17.70
2007,07,13,22,03,17.70
2007,07,13,22,04,17.70
2007,07,13,22,05,17.70
2007,07,13,22,06,17.60
2007,07,13,22,07,17.60
2007,07,13,22,08,17.60
2007,07,13,22,09,17.60
2007,07,13,22,10,17.60
2007,07,13,22,11,17.60
2007,07,13,22,12,17.70
2007,07,13,22,13,17.60
2007,07,13,22,14,17.60
2007,07,13,22,15,17.60
2007,07,13,22,16,17.60
2007,07,13,22,17,17.60
2007,07,13,22,18,17.60
2007,07,13,22,19,17.60
2007,07,13,22,20,17.50
2007,07,13,22,21,17.50
2007,07,13,22,22,17.50
2007,07,13,22,23,17.40
2007,07,13,22,24,17.40
2007,07,13,22,25,17.40
2007,07,13,22,26,17.40
2007,07,13,22,27,17.40
2007,07,13,22,28,17.40
2007,07,13,22,29,17.40
2007,07,13,22,30,17.40
2007,07,13,22,31,17.40
2007,07,13,22,32,17.40
2007,07,13,22,33,17.40
2007,07,13,22,34,17.40
2007,07,13,22,35,17.40
2007,07,13,22,36,17.30
2007,07,13,22,37,17.30
2007,07,13,22,38,17.30
2007,07,13,22,39,17.30
2007,07,13,22,40,17.30
2007,07,13,22,41,17.30
2007,07,13,22,42,17.30
2007,07,13,22,43,17.30
2007,07,13,22,44,17.30
2007,07,13,22,45,17.30
2007,07,13,22,46,17.30
2007,07,13,22,47,17.30
2007,07,13,22,48,17.30
2007,07,13,22,49,17.30
2007,07,13,22,50,17.30
2007,07,13,22,51,17.30
2007,07,13,22,52,17.30
2007,07,13,22,53,17.30
2007,07,13,22,54,17.30
2007,07,13,22,55,17.30
2007,07,13,22,56,17.30
2007,07,13,22,57,17.30
2007,07,13,22,58,17.30
2007,07,13,22,59,17.30
2007,07,13,23,00,17.40
2007,07,13,23,01,17.40
2007,07,13,23,02,17.30
2007,07,13,23,03,17.30
2007,07,13,23,04,17.30
2007,07,13,23,05,17.30
2007,07,13,23,06,17.30
2007,07,13,23,07,17.30
2007,07,13,23,08,17.30
2007,07,13,23,09,17.30
2007,07,13,23,10,17.30
2007,07,13,23,11,17.30
2007,07,13,23,12,17.30
2007,07,13,23,13,17.30
2007,07,13,23,14,17.30
2007,07,13,23,15,17.30